Regional Weather Roundup
Issued by NWS Sterling, VA

Home | Current Version | Previous Version | Graphics & Text | Print | Product List | Glossary On
Versions: 1 2 3 4 5 6 7 8 9 10 11 12 13 14 15 16 17 18 19 20 21 22 23 24 25 26 27 28 29 30 31 32 33 34 35 36 37 38 39 40 41 42 43 44 45 46 47 48 49 50
000
ASUS41 KLWX 140010
RWRLWX

REGIONAL WEATHER ROUNDUP
NATIONAL WEATHER SERVICE BALTIMORE MD/WASHINGTON DC
800 PM EDT SUN JUL 13 2014

Note: "FAIR" indicates few or no clouds below 12,000 feet
with no significant weather and/or obstructions to visibility.
 TC=TEMPERATURE CELSIUS

 * =Non NWS site. Station does not report precipitation (e.g. rain,
    snow, etc.), thunder, or fog.

DCZ001-MDZ009-015-VAZ040>042-051-053>054-140100-
WASHINGTON METRO

CITY           SKY/WX    TMP DP  RH WIND       PRES   REMARKS
WASHINGTON NAT MOCLDY    89  68  49 S8G22     29.92S HX  93
DULLES         MOCLDY    84  69  60 S8        29.91F
ANDREWS AFB    MOCLDY    86  72  61 S13       29.92F HX  92
FT BELVOIR     PTCLDY    86  72  62 SE6       29.92F HX  92
QUANTICO       PTCLDY    87  70  56 SW8       29.93F HX  92
COLLEGE PARK*  PTCLDY    90  68  48 S8        29.91S HX  93
LEESBURG*      RAIN      84  77  79 S7        29.91F HX  94
GAITHERSBURG*  MOCLDY    84  70  61 S7        29.95F

$$

MDZ006>007-011-014-140100-
BALTIMORE METRO

CITY           SKY/WX    TMP DP  RH WIND       PRES   REMARKS
BWI AIRPORT    MOCLDY    86  69  56 S6        29.90F HX  90
MD SCIENCE CTR   N/A     89  68  49 MISG      29.90F HX  93
MARTIN STATE   PTCLDY    84  79  84 E13       29.92S HX  96
ANNAPOLIS      PTCLDY    84  73  69 S9G20     29.91F HX  90
FORT MEADE*    PTCLDY    81  70  69 S5        29.94S

$$

MDZ012-015-019>023-140100-
MARYLAND EASTERN SHORE

CITY           SKY/WX    TMP DP  RH WIND       PRES   REMARKS
OCEAN CITY     PTCLDY    77  73  87 SW12G23   30.00R
SALISBURY      MOCLDY    82  71  69 S12       29.99R
BAY BRIDGE AP*   N/A     82  70  65 S9G17     29.93S
CAMBRIDGE*     MOCLDY    84  70  61 S8        29.96R
EASTON*        MOCLDY    86  73  66 S12       29.98S HX  93

$$

MDZ017>025-140100-
SOUTHERN MARYLAND

CITY           SKY/WX    TMP DP  RH WIND       PRES   REMARKS
PATUXENT RIVER PTCLDY    83  70  64 S8        29.96R
ST INIGOES     CLEAR     83  70  64 S9        29.96R
LEONARDTOWN*   CLEAR     82  68  61 S3        29.97S

$$

MDZ003>005-140100-
NORTH CENTRAL MARYLAND

CITY           SKY/WX    TMP DP  RH WIND       PRES   REMARKS
FREDERICK*     CLEAR     82  73  74 MISG      29.92F
HAGERSTOWN APT CLOUDY    84  71  65 SW12      29.92R THUNDER
WESTMINSTER*   MOCLDY    84  70  61 S7        29.93F

$$

MDZ501>502-140100-
WESTERN MARYLAND

CITY           SKY/WX    TMP DP  RH WIND       PRES   REMARKS
OAKLAND*       CLOUDY    63 N/A N/A W6        30.06F
CUMBERLAND*    CLOUDY    73  68  83 SW6       29.96F

$$

VAZ025>031-140100-
SHENANDOAH VALLEY

CITY           SKY/WX    TMP DP  RH WIND       PRES   REMARKS
WINCHESTER*    TSTM      72  68  88 NW37G43   29.95R
STAUNTON*      MOCLDY    79  70  74 S7        30.00F

$$

WVZ021-048>050-054>055-140100-
EASTERN WEST VIRGINIA PANHANDLE

CITY           SKY/WX    TMP DP  RH WIND       PRES   REMARKS
MARTINSBURG    HVY RAIN  69  66  90 N18G53    29.95R VSB 1/2
PETERSBURG*    LGT RAIN  75  62  64 N7        29.98R

$$

VAZ036>039-050-140100-
CENTRAL FOOTHILLS

CITY           SKY/WX    TMP DP  RH WIND       PRES   REMARKS
CHARLOTTESVILL MOCLDY    85  70  60 SW9       29.96F
ORANGE*        MOCLDY    82  70  65 S5        29.96F

$$

VAZ055>057-140100-
NORTH AND CENTRAL PIEDMONT

CITY           SKY/WX    TMP DP  RH WIND       PRES   REMARKS
FREDERICKSBRG* PTCLDY    89  69  51 S8        29.93F HX  93
STAFFORD*      PTCLDY    87  70  56 S7        29.97F HX  91

$$

NCZ024-NYZ072-PAZ021-071-VAZ022-071-140100-
OTHER REGIONAL OBSERVATIONS

CITY           SKY/WX    TMP DP  RH WIND       PRES   REMARKS
NEW YORK CITY  PTCLDY    78  70  76 VRB5      29.93S
PHILADELPHIA   MOCLDY    87  70  56 S13       29.92R HX  92
PITTSBURGH     MOCLDY    78  71  79 SW3       29.94R
ROANOKE        MOCLDY    84  68  58 S9        30.03R
RICHMOND       PTCLDY    88  66  48 S12       29.98S HX  90
RALEIGH        PTCLDY    87  66  49 S7        30.02R

$$

ANZ530>537-140100-
MARINE OBSERVATIONS

STATION/POSITION TIME  TEMP    WIND        PRES
                       AIR SEA DIR/SP/G
                 (UTC) (F)     (DEG/KT/KT) (MB)
THOMAS PT LIGHT  0000   81 79  180/ 18/ 20 1013.7S
BALT KEY BRIDGE  0000   84     150/  7/  8 1012.8R
COVE POINT       0000   83     190/ 13/ 14 1014.2F
LEWISETTA        0000   85 82  210/  8/  9 1014.5F
SOLOMONS ISLAND  0000      82                N/A
PINEY POINT      0000          210/ 12/ 13   N/A

$$



USA.gov is the U.S. government's official web portal to all federal, state and local government web resources and services.